Wind_Speed
8 7 6 5 5 5 4 3 4 4 3 4 3 3 2 2 2 2 2 2 2 2 2 3 2 2 2 2 2 3 3 3 3 3 3 2 2 2 1 1 2 2 2
9 8 8 7 6 6 4 4 4 4 3 3 3 3 3 2 2 2 2 2 2 2 2 2 2 2 2 2 3 2 3 3 3 3 3 3 3 2 2 2 3 3 3
10 9 9 8 8 7 6 5 4 4 4 3 3 3 3 3 2 2 2 2 2 2 2 1 1 2 2 2 3 3 3 3 3 3 3 3 3 3 3 4 4 4 4
11 11 10 10 9 8 7 6 5 5 4 4 3 3 3 3 3 2 2 2 2 2 2 1 1 1 2 2 3 3 3 3 3 3 3 3 3 3 4 4 4 5 5
11 12 12 11 10 9 8 7 6 5 5 4 4 4 4 3 3 3 3 2 2 2 2 2 2 1 2 2 2 2 2 2 2 3 3 3 3 4 4 5 5 4 5
13 12 13 12 11 10 10 8 7 6 6 6 5 5 4 4 4 3 4 3 3 3 3 2 2 3 2 2 2 2 3 3 3 3 3 3 3 4 4 4 5 5 5
14 14 14 13 13 12 11 10 9 8 7 7 7 6 6 5 5 5 4 4 4 4 4 4 3 4 4 3 3 3 3 4 4 3 3 3 3 4 4 5 5 5 5
15 15 15 15 14 13 12 11 10 10 9 8 8 8 7 7 7 6 6 6 6 5 5 5 5 5 5 4 4 4 4 4 4 4 4 4 4 4 5 5 5 5 6
16 16 17 16 15 15 13 12 11 11 11 10 10 9 9 9 8 8 8 7 7 7 7 7 7 7 7 7 6 6 5 5 5 5 5 5 5 5 6 6 7 7 8
17 17 18 18 17 16 15 14 13 12 12 12 11 11 11 10 10 9 9 9 9 9 9 9 9 9 9 9 9 8 7 7 6 6 6 6 7 7 8 8 9 9 10
18 18 18 19 18 18 17 16 15 14 13 13 13 12 12 12 11 11 10 10 10 10 10 10 10 11 11 11 11 10 10 9 8 8 9 9 9 9 9 10 10 11 11
19 19 19 20 20 19 19 18 18 16 15 14 14 14 13 13 13 12 12 11 12 12 12 12 12 12 12 12 12 11 11 11 11 11 11 11 11 12 12 12 13 13 13
20 20 19 20 20 20 20 20 19 18 17 16 16 16 16 15 15 14 14 14 13 13 13 13 13 13 13 12 13 13 13 13 13 13 14 14 14 15 15 15 16 16 16
21 20 21 21 21 21 20 20 21 20 19 18 18 17 17 17 17 16 16 16 16 15 15 15 15 15 14 14 15 15 15 15 16 16 17 17 18 18 18 19 19 19 19
22 21 21 22 23 22 22 21 21 21 20 19 19 19 19 19 18 18 18 17 17 17 17 17 17 17 16 17 17 17 17 17 18 18 19 20 21 21 21 22 22 22 23
22 22 22 21 22 22 22 22 21 21 21 21 20 20 20 20 19 19 19 19 19 19 20 19 19 19 19 19 19 19 20 21 21 21 22 22 23 24 24 25 25 26 26
22 22 21 21 21 21 22 22 22 22 22 22 22 22 21 21 21 22 22 22 22 21 21 21 21 21 21 22 21 22 23 23 24 25 25 25 26 26 27 28 28 29 30
20 21 21 21 21 22 22 22 22 22 22 23 23 22 23 23 23 23 23 24 23 22 22 23 23 23 23 24 25 25 26 26 27 28 29 29 29 30 30 31 32 32 33
20 21 20 21 22 22 22 22 23 23 23 23 24 24 23 23 24 24 23 24 24 24 24 25 26 26 26 27 27 28 29 30 30 31 31 31 32 32 33 34 35 35 36
19 20 20 20 21 22 22 23 24 24 24 24 24 25 25 24 25 24 24 25 25 25 26 27 28 28 29 30 30 31 31 32 32 33 34 35 35 36 36 37 38 38 39
17 19 20 21 21 21 23 23 24 24 24 24 26 26 26 25 25 26 26 27 27 27 28 29 30 30 31 32 33 33 34 35 35 36 37 38 38 39 39 40 40 41 42
17 18 19 19 20 20 21 23 23 24 24 25 26 27 27 26 27 27 27 27 28 29 29 30 31 32 33 34 34 35 35 36 37 38 39 40 41 41 41 42 42 43 44
16 17 18 19 19 20 20 22 23 24 25 25 26 27 28 29 28 29 30 29 29 29 31 32 33 34 35 36 37 37 37 38 39 40 41 41 43 43 43 43 44 45 46
15 16 17 18 19 19 19 21 21 23 24 26 27 27 29 30 30 30 30 30 31 32 33 34 34 35 36 37 38 39 39 40 41 42 43 44 45 45 46 46 46 47 47
14 15 16 18 19 20 20 21 22 23 25 26 28 29 29 28 29 30 31 32 33 34 35 35 35 36 37 38 39 40 40 41 42 44 45 46 46 47 47 47 47 48 49
13 14 16 17 18 20 21 22 23 24 25 27 27 28 28 29 30 31 33 34 34 35 35 36 38 39 39 40 40 41 42 42 43 44 45 45 46 47 47 48 49 50 51
Wind_Direction
203 200 193 188 182 184 187 185 181 176 174 175 173 167 177 182 181 193 207 215 222 229 234 236 237 250 259 267 271 274 277 280 281 289 292 296 303 311 314 306 314 311 311
209 204 203 199 195 192 188 184 181 180 174 176 181 180 187 185 182 187 204 218 223 226 241 244 242 250 259 268 275 284 290 292 286 287 285 290 287 293 300 302 300 297 289
214 210 209 206 204 200 196 192 190 188 184 186 188 190 194 196 195 207 215 226 226 226 231 246 247 248 259 266 269 272 281 292 287 287 285 282 280 282 291 295 293 293 288
220 216 215 210 206 203 199 195 195 196 201 199 201 203 198 200 203 216 227 230 227 228 229 253 245 251 259 265 269 278 286 294 297 297 293 284 279 284 290 296 294 293 291
225 222 218 213 210 207 204 202 203 203 204 205 210 211 211 215 218 227 233 228 225 225 240 251 252 258 265 271 274 282 296 308 310 310 310 298 289 289 292 300 301 300 299
231 227 219 217 215 213 211 209 211 208 207 208 211 218 226 230 230 233 239 237 233 242 249 248 252 252 257 263 274 282 294 302 311 310 317 318 309 301 296 296 297 297 298
234 229 222 220 219 217 214 213 214 215 216 218 221 229 235 237 237 243 250 251 245 251 253 253 259 256 255 260 272 280 287 297 304 299 307 316 320 314 309 301 298 298 304
234 228 224 221 220 219 220 220 222 222 225 228 230 235 240 242 245 253 257 261 257 257 258 259 259 259 259 261 271 277 282 289 297 298 298 304 317 322 319 317 314 308 307
232 228 224 222 222 223 224 226 227 229 233 234 235 240 241 245 248 255 260 264 262 260 261 261 260 260 261 264 270 273 275 280 285 289 295 296 304 311 314 312 309 307 305
228 226 225 224 223 225 227 230 231 233 237 239 238 239 242 246 251 257 262 266 264 263 262 261 260 259 261 263 269 270 269 275 278 283 288 292 294 297 301 304 305 302 301
226 226 228 229 228 228 231 234 235 237 238 238 238 241 243 247 252 257 262 264 265 265 263 261 260 260 261 265 267 266 267 271 276 279 282 286 288 290 296 299 300 298 297
227 227 230 231 232 233 235 237 239 240 240 241 241 244 245 248 252 255 258 262 265 265 262 260 260 260 263 265 265 265 268 272 275 278 280 283 285 287 289 292 294 293 292
231 231 231 233 234 235 237 240 240 242 242 242 243 245 246 248 252 253 256 261 264 265 262 261 260 260 261 261 262 265 268 271 274 277 280 282 283 284 287 289 290 290 289
235 235 236 235 235 238 239 242 242 242 242 242 244 246 247 249 250 253 257 260 263 265 264 263 261 260 263 264 265 267 268 270 272 275 277 280 282 283 284 286 286 287 287
237 239 240 240 240 240 241 245 244 243 242 243 245 246 248 250 252 255 257 259 263 265 265 265 263 261 263 267 267 268 269 270 272 275 277 279 281 282 283 284 285 286 286
235 237 239 240 240 239 242 243 242 243 244 244 245 247 248 251 253 255 258 260 262 264 264 265 265 265 266 267 268 270 271 272 273 276 279 281 282 282 283 283 283 284 285
237 236 237 238 241 241 241 241 241 244 244 244 246 248 248 252 255 258 260 261 263 263 263 265 266 267 268 269 271 273 275 277 276 277 279 281 282 283 284 284 284 284 284
237 236 237 239 241 241 241 241 242 242 243 244 247 249 251 254 256 258 260 262 263 261 262 264 266 269 271 273 275 276 277 279 280 280 280 281 282 282 283 284 285 284 284
238 237 236 238 241 240 240 243 244 245 246 248 249 250 252 255 257 260 262 263 262 261 263 265 267 270 272 274 275 277 278 279 280 281 281 281 282 282 283 284 284 284 284
240 237 236 237 239 239 241 244 246 247 249 250 249 250 253 255 257 259 262 263 263 264 266 267 268 270 273 274 276 277 279 280 280 282 281 282 282 283 283 283 284 284 284
242 239 239 239 239 241 241 243 245 248 250 251 253 254 255 256 258 262 265 266 266 266 267 267 268 271 273 275 276 277 278 280 281 282 283 283 284 284 283 283 283 284 284
243 242 240 239 241 242 245 244 246 248 251 254 255 257 259 258 260 261 265 268 268 268 269 269 270 272 274 275 277 278 279 281 282 282 283 283 285 285 284 284 284 284 284
246 243 242 242 243 244 247 248 248 250 254 257 259 261 262 260 260 263 264 266 268 270 271 272 273 275 275 276 277 278 280 281 282 283 284 284 284 284 283 284 284 285 285
247 247 246 247 248 249 252 254 255 257 259 260 260 262 263 261 261 264 265 266 269 271 273 274 274 275 276 276 277 278 280 281 282 283 284 284 284 284 284 285 285 285 285
252 249 250 250 251 251 255 255 257 260 261 263 264 264 265 265 265 267 267 269 270 273 274 275 276 276 277 278 279 281 282 283 284 284 284 285 285 286 286 285 285 285 285
256 257 255 256 258 258 257 259 261 264 265 266 268 269 270 269 269 270 271 272 273 274 275 276 276 277 278 279 281 282 283 284 285 285 286 286 286 286 285 285 285 285 286
Height
5901 5902 5903 5904 5904 5904 5905 5905 5906 5907 5907 5907 5908 5908 5908 5908 5908 5909 5909 5909 5909 5909 5909 5909 5909 5909 5909 5909 5909 5909 5909 5909 5909 5908 5908 5908 5908 5908 5908 5908 5908 5907 5907
5900 5901 5902 5903 5904 5904 5905 5905 5906 5906 5907 5907 5908 5908 5908 5908 5908 5909 5909 5909 5909 5909 5909 5909 5909 5909 5909 5909 5909 5909 5908 5908 5908 5908 5908 5908 5907 5907 5907 5907 5907 5907 5907
5899 5900 5901 5902 5903 5903 5904 5905 5905 5906 5907 5907 5908 5908 5908 5908 5908 5909 5909 5909 5909 5909 5909 5909 5908 5908 5908 5908 5908 5908 5908 5907 5907 5907 5907 5907 5907 5907 5907 5907 5907 5906 5906
5898 5899 5900 5901 5902 5902 5903 5904 5905 5906 5906 5907 5907 5907 5907 5908 5908 5908 5908 5908 5909 5909 5909 5908 5908 5908 5908 5908 5908 5908 5907 5907 5907 5906 5906 5906 5906 5906 5906 5906 5906 5905 5905
5896 5897 5898 5900 5900 5901 5902 5903 5904 5905 5905 5906 5906 5907 5907 5908 5908 5908 5908 5908 5908 5908 5908 5908 5908 5908 5908 5908 5907 5907 5907 5907 5906 5906 5906 5905 5905 5905 5905 5905 5905 5904 5904
5894 5895 5897 5898 5899 5900 5901 5902 5903 5904 5905 5905 5906 5906 5907 5907 5907 5907 5908 5908 5908 5908 5908 5908 5908 5907 5907 5907 5907 5907 5906 5906 5906 5906 5905 5905 5905 5904 5904 5904 5904 5903 5903
5892 5893 5895 5896 5897 5899 5900 5901 5902 5903 5903 5904 5905 5906 5906 5906 5907 5907 5907 5907 5907 5907 5907 5907 5907 5907 5907 5906 5906 5906 5906 5906 5905 5905 5905 5904 5904 5903 5903 5903 5902 5902 5902
5889 5890 5892 5894 5896 5897 5898 5899 5900 5901 5902 5903 5904 5904 5905 5906 5906 5906 5906 5906 5906 5906 5906 5906 5906 5906 5906 5906 5905 5905 5905 5905 5904 5904 5904 5904 5903 5903 5902 5902 5902 5901 5901
5886 5888 5889 5891 5893 5895 5896 5898 5899 5899 5900 5901 5902 5903 5904 5904 5904 5905 5904 5905 5905 5905 5905 5905 5905 5905 5905 5904 5904 5904 5904 5903 5903 5903 5903 5903 5902 5902 5901 5901 5900 5900 5899
5883 5884 5887 5888 5890 5892 5894 5895 5896 5897 5898 5899 5900 5900 5902 5902 5903 5903 5903 5903 5903 5903 5903 5903 5903 5903 5903 5903 5902 5902 5902 5902 5902 5902 5902 5901 5901 5900 5900 5899 5899 5898 5898
5879 5881 5883 5885 5887 5889 5891 5892 5894 5894 5895 5896 5897 5898 5899 5899 5900 5901 5901 5901 5901 5901 5901 5901 5901 5901 5901 5900 5900 5900 5900 5900 5900 5900 5900 5899 5899 5898 5898 5897 5897 5896 5895
5876 5878 5880 5882 5884 5886 5887 5889 5890 5891 5892 5894 5895 5895 5896 5897 5897 5898 5898 5898 5898 5898 5898 5898 5898 5898 5898 5898 5898 5898 5898 5898 5898 5897 5897 5897 5896 5896 5895 5895 5894 5893 5892
5871 5873 5876 5878 5880 5882 5884 5885 5886 5888 5889 5890 5891 5892 5893 5894 5894 5895 5895 5895 5895 5895 5896 5896 5896 5896 5895 5895 5895 5895 5895 5895 5895 5895 5894 5894 5893 5892 5892 5891 5890 5889 5888
5867 5869 5871 5873 5875 5877 5879 5881 5883 5884 5885 5886 5887 5888 5889 5890 5891 5891 5892 5892 5892 5892 5892 5893 5892 5893 5892 5892 5892 5892 5892 5891 5891 5891 5891 5890 5889 5889 5888 5887 5886 5885 5884
5862 5865 5867 5869 5871 5873 5875 5877 5878 5880 5881 5882 5883 5884 5885 5886 5887 5888 5888 5889 5889 5889 5889 5889 5889 5889 5889 5888 5888 5888 5888 5887 5887 5887 5886 5885 5884 5884 5883 5882 5881 5880 5879
5858 5860 5862 5864 5865 5868 5870 5872 5874 5876 5877 5878 5879 5880 5881 5882 5883 5883 5884 5884 5884 5885 5884 5884 5884 5884 5884 5884 5884 5883 5883 5883 5882 5881 5881 5880 5879 5878 5877 5876 5875 5874 5873
5853 5855 5857 5859 5861 5863 5865 5867 5869 5871 5872 5873 5874 5875 5876 5877 5878 5879 5879 5879 5879 5880 5880 5880 5879 5879 5879 5879 5879 5878 5877 5877 5876 5876 5875 5874 5873 5872 5870 5869 5868 5867 5865
5848 5850 5852 5854 5856 5858 5860 5862 5864 5865 5867 5868 5869 5870 5871 5872 5873 5873 5874 5874 5874 5874 5874 5874 5874 5874 5874 5873 5873 5872 5871 5870 5869 5869 5867 5866 5865 5864 5863 5862 5860 5859 5857
5843 5845 5847 5849 5851 5853 5855 5857 5859 5860 5862 5863 5864 5865 5866 5866 5867 5867 5868 5868 5868 5868 5868 5868 5868 5868 5867 5867 5866 5865 5864 5863 5862 5861 5860 5858 5857 5856 5854 5853 5851 5850 5848
5839 5841 5842 5844 5846 5848 5850 5852 5853 5855 5856 5857 5858 5859 5860 5860 5861 5861 5862 5862 5862 5862 5862 5862 5862 5861 5860 5859 5859 5858 5856 5855 5854 5852 5851 5850 5848 5847 5845 5843 5841 5840 5838
5835 5836 5837 5839 5841 5843 5844 5846 5848 5849 5850 5851 5852 5853 5854 5854 5855 5855 5855 5855 5855 5855 5855 5854 5854 5853 5852 5851 5850 5849 5848 5846 5845 5843 5841 5840 5838 5836 5835 5833 5831 5829 5827
5830 5831 5832 5834 5835 5837 5839 5841 5842 5843 5844 5845 5846 5846 5847 5847 5848 5848 5848 5848 5848 5847 5847 5847 5846 5845 5844 5842 5841 5840 5839 5837 5835 5834 5832 5829 5827 5825 5823 5821 5820 5818 5815
5826 5827 5828 5830 5831 5832 5834 5835 5836 5837 5838 5839 5839 5840 5840 5840 5841 5841 5841 5840 5840 5840 5839 5838 5837 5836 5835 5833 5832 5830 5829 5827 5825 5823 5821 5819 5816 5814 5811 5809 5808 5805 5803
5823 5824 5824 5825 5826 5828 5829 5830 5831 5832 5832 5832 5832 5833 5832 5833 5833 5833 5833 5832 5832 5831 5830 5829 5828 5827 5825 5824 5822 5820 5818 5816 5815 5812 5810 5808 5805 5802 5800 5797 5795 5792 5789
5819 5820 5821 5821 5822 5823 5824 5825 5825 5826 5826 5826 5826 5826 5825 5825 5825 5824 5824 5824 5823 5822 5820 5819 5818 5816 5815 5813 5811 5809 5807 5805 5803 5801 5798 5795 5793 5790 5787 5784 5781 5779 5776
5816 5817 5817 5817 5818 5818 5819 5819 5820 5820 5820 5820 5819 5819 5818 5817 5817 5816 5815 5814 5813 5812 5811 5809 5808 5806 5804 5802 5800 5798 5796 5794 5791 5789 5786 5783 5779 5776 5774 5771 5768 5764 5761